Погода в Стрельцах

Россия / Курганская область     54°58′03″N   67°43′40″E
темп.,
°C
ветер,
м/с
пор.,
м/с
влажн.,
%
обл.,
%
осадки,
мм/ч
давл.,
гПа
погр.,
м
19 сентября, вс
вс1923:00+4з4992100 0.3 1005203
02:00+3зсз511925 0.0 1005295
05:00+1з612885 0.0 1007363
08:00+2з6118458 0.0 1007569
11:00+5з81060100 0.1 10081472
14:00+6з81060100 0.1 10091418
17:00+5з81375100 0.3 10101299
20:00+4з7137276 0.1 1011746
20 сентября, пн
пн2023:00+5з7136599 0.1 1012771
02:00+4зсз71364100 0.0 1013855
05:00+3зсз61176100 0.0 1015878
08:00+3зсз71176100 0.0 1016842
11:00+5сз7965100 0.2 10181248
14:00+6сз7958100 0.3 10201429
17:00+6ссз686099 0.4 10211321
20:00+4сз5975100 0.1 1023704
21 сентября, вт
вт2123:00+2ссз499060 0.1 1024401
02:00+2ссз5885100 0.0 1025563
05:00+3ссз5775100 0.0 1026855
08:00+3ссз4567100 0.0 10271070
11:00+4сз4566100 0.0 1027782
14:00+5сз5563100 0.0 10271219
17:00+4сз4563100 0.1 10271131
20:00+3с1165100 0.0 102624
22 сентября, ср
ср2223:00+1зюз0073100 0.0 102610
02:00+2зюз2271100 0.0 102540
05:000з22805 0.0 102516
08:00+3з246757 0.0 1024147
11:00+9з344385 0.0 1023898
14:00+11зсз563692 0.0 10221920
17:00+10ссз5645100 0.0 10221498
20:00+6ссв486648 0.0 1024400
23 сентября, чт
чт2323:00+4с3777100 0.0 1026182
02:00+5с368499 0.1 1026372
05:00+1с36945 0.1 1028139
08:00+3ссв367817 0.0 1030261
11:00+6с455456 0.0 10301198
14:00+9ссв444062 0.0 10311562
17:00+9ссв444166 0.0 10311581
20:00+4всв35595 0.0 103367